This is the latest recevied weather packets stored in our database for station/object VA3XLT-1. If no packets are shown the sender has not sent any weather packets the latest 10 day(s).
| Time | Temp. | Humidity | Pressure | Rain* | Wind** | Luminosity | Snow |
|---|---|---|---|---|---|---|---|
| 1777075987 | 11.67° C | 81% | 1008.4 hPa | 0 mm | - | - | - |
| 1777075687 | 11.67° C | 81% | 1008.4 hPa | 0 mm | - | - | - |
| 1777075387 | 11.67° C | 80% | 1008.4 hPa | 0 mm | - | - | - |
| 1777075087 | 11.67° C | 80% | 1008.4 hPa | 0 mm | - | - | - |
| 1777074787 | 12.22° C | 81% | 1008.4 hPa | 0 mm | - | - | - |
| 1777074487 | 12.22° C | 80% | 1008.5 hPa | 0 mm | - | - | - |
| 1777074187 | 12.78° C | 79% | 1008.6 hPa | 0 mm | - | - | - |
| 1777073887 | 12.78° C | 75% | 1008.7 hPa | 0 mm | - | - | - |
| 1777073587 | 13.33° C | 72% | 1008.6 hPa | 0 mm | - | - | - |
| 1777073287 | 13.33° C | 69% | 1008.6 hPa | 0 mm | - | - | - |
| 1777072987 | 13.89° C | 66% | 1008.7 hPa | 0 mm | - | - | - |
| 1777072687 | 13.89° C | 63% | 1008.8 hPa | 0 mm | - | - | - |
| 1777072387 | 13.89° C | 61% | 1008.7 hPa | 0 mm | - | - | - |
| 1777072087 | 14.44° C | 61% | 1008.6 hPa | 0 mm | - | - | - |
| 1777071787 | 14.44° C | 59% | 1008.6 hPa | 0 mm | - | - | - |
| 1777071487 | 14.44° C | 59% | 1008.9 hPa | 0 mm | - | - | - |
| 1777071187 | 14.44° C | 58% | 1008.8 hPa | 0 mm | - | - | - |
| 1777070887 | 14.44° C | 57% | 1008.4 hPa | 0 mm | - | - | - |
| 1777070587 | 14.44° C | 59% | 1008.8 hPa | 0 mm | - | - | - |
| 1777070287 | 14.44° C | 58% | 1007.5 hPa | 0 mm | - | - | - |
| 1777069987 | 14.44° C | 58% | 1007.4 hPa | 0 mm | - | - | - |
| 1777069687 | 14.44° C | 58% | 1007.4 hPa | 0 mm | - | - | - |
| 1777069387 | 14.44° C | 57% | 1007.4 hPa | 0 mm | - | - | - |
| 1777069087 | 15° C | 58% | 1007.4 hPa | 0 mm | - | - | - |
| 1777068787 | 15° C | 57% | 1007.4 hPa | 0 mm | - | - | - |
* Rain latest hour (hover to see other rain measurements)
** Current wind speed in m/s (hover to see current wind gust speed)